Regional Weather Roundup
Issued by NWS

Home | Current Version | Previous Version | Graphics & Text | Print | Product List | Glossary On
Versions: 1 2 3 4 5 6 7 8 9 10 11 12 13 14 15 16 17 18 19 20 21 22 23 24 25 26 27 28 29 30 31 32 33 34 35 36 37 38 39 40 41 42 43 44 45 46 47 48 49 50
328
ASUS43 KLOT 240703
RWRIL

ILLINOIS REGIONAL WEATHER ROUNDUP
NATIONAL WEATHER SERVICE CHICAGO/ROMEOVILLE IL
100 AM CST FRI NOV 24 2017

NOTE: "FAIR" INDICATES FEW OR NO CLOUDS BELOW 12,000 FEET WITH NO
SIGNIFICANT WEATHER AND/OR OBSTRUCTIONS TO VISIBILITY.

* THESE STATIONS ARE NOT UNDER NWS QUALITY CONTROL. THEY ALSO MAY NOT
  REPORT WEATHER SUCH AS PRECIPITATION OR FOG.

ILZ001-002-007-009-015-016-024-240800-
NORTHWEST ILLINOIS

CITY           SKY/WX    TMP DP  RH WIND       PRES   REMARKS
MOLINE         CLEAR     38  27  64 S5        29.83F WCI  34
STERLING*      CLEAR     35  28  75 VRB3      29.84F
SAVANNA*       CLEAR     32  27  83 S5        29.82F WCI  27
$$

ILZ003-004-008-010-011-017-018-240800-
NORTH CENTRAL ILLINOIS

CITY           SKY/WX    TMP DP  RH WIND       PRES   REMARKS
ROCKFORD       CLEAR     34  25  69 S6        29.84F WCI  29
FREEPORT*      CLEAR     35  28  73 S10       29.82F WCI  28
ROCHELLE*      CLEAR     32  28  84 S10       29.84F WCI  23
DE KALB*       CLEAR     30  26  87 S7        29.84F WCI  23
PERU*          CLOUDY    34  26  72 SW7       29.87F WCI  28
$$

ILZ005-006-012>014-019>023-240800-
NORTHEAST ILLINOIS

CITY           SKY/WX    TMP DP  RH WIND       PRES   REMARKS
CHICAGO-OHARE  CLEAR     33  26  75 S8        29.84F WCI  26
CHICAGO-MIDWAY NOT AVBL
AURORA         CLEAR     32  25  75 S3        29.86F
LANSING*       CLEAR     29  28  94 S6        29.89F WCI  23
JOLIET*        CLEAR     30  28  92 S3        29.87F
WAUKEGAN       CLEAR     33  26  75 SW8       29.82F WCI  26
DUPAGE AIRPORT CLEAR     29  25  85 S6        29.84F WCI  23
KANKAKEE*      CLEAR     31  27  83 S6        29.91F WCI  26
WHEELING       CLEAR     31  26  82 S6        29.85F WCI  25
MORRIS*        CLOUDY    29  25  83 S6        29.86F WCI  23
ROMEOVILLE*    CLEAR     30  27  89 S9        29.86F WCI  22
NORTHERLY ISL    N/A     38  26  62 S8          N/A  WCI  32
$$

LMZ740>746-240800-
SOUTHERN LAKE MICHIGAN

STATION/POSITION SKY/WX   TEMP    WIND        PRES    VSBY  WAVE
                          AIR SEA DIR/SP/G                  HT/PER
                          (F)     (DEG/KT/KT) (MB)    (MI)  (FT/S)
SOUTHERN BUOY              44 47  260/ 16/ 17 1011.6          2/ 3
HARRISON CRIB              41     190/ 14/ 16   N/A
BURNHAM HARBOR             38     170/  7/  8   N/A
CALUMET HARBOR             35     170/  5/  6 1011.3F
BURNS HARBOR               35     180/  9/ 12 1012.5F
MICHIGAN CITY              36     170/ 12/ 13   N/A
$$

ILZ025>027-034>036-040-047-049-050-058-095>099-240800-
WEST-CENTRAL ILLINOIS

CITY           SKY/WX    TMP DP  RH WIND       PRES   REMARKS
QUINCY         CLEAR     42  31  64 S7        29.87F
GALESBURG*     CLEAR     35  30  83 S7        29.85F WCI  29
MACOMB*        CLEAR     34  29  83 S9        29.89F WCI  26
JACKSONVILLE*  CLOUDY    38  28  69 S7        29.89F WCI  32
PITTSFIELD*    CLEAR     40  31  70 S5        29.90S
$$

ILZ028>032-037-038-041>044-048-051>054-059>061-240800-
CENTRAL ILLINOIS

CITY           SKY/WX    TMP DP  RH WIND       PRES   REMARKS
PONTIAC        CLOUDY    28  28  99 S5        29.89F WCI  23
BLOOMINGTON    CLOUDY    31  27  85 S8        29.90F WCI  23
DECATUR        CLEAR     35  26  69 S7        29.92S WCI  29
PEORIA         CLEAR     32  26  78 S7        29.89F WCI  26
LACON*         CLEAR     30  26  84 S3        29.86F
LINCOLN*       CLOUDY    32  29  87 S3        29.90F
SPRINGFIELD    CLOUDY    35  27  72 S5        29.90F WCI  31
TAYLORVILLE    CLOUDY    34  27  77 S6        29.92F WCI  29
$$

ILZ033-039-045-046-055>057-062-063-240800-
EAST-CENTRAL ILLINOIS

CITY           SKY/WX    TMP DP  RH WIND       PRES   REMARKS
CHAMPAIGN      CLEAR     33  27  78 S9        29.91F WCI  25
DANVILLE*      CLEAR     33  25  73 S5        29.90F WCI  29
RANTOUL*       CLEAR     35  29  79 S5        29.91S WCI  31
MATTOON        CLEAR     37  26  64 S7        29.92F WCI  32
PARIS*         CLOUDY    33  27  79 S8        29.94F WCI  26
$$

ILZ079-100>102-240800-
SOUTHWEST ILLINOIS

CITY           SKY/WX    TMP DP  RH WIND       PRES   REMARKS
ALTON          CLOUDY    28  27  95 SE3       29.93F
BELLEVILLE     CLOUDY    33  27  79 CALM      29.93F
CAHOKIA*       CLEAR     32  26  78 CALM      29.94F
SPARTA*        CLEAR     40  28  63 S5        29.95F
$$

ILZ064>066-069>071-074>076-080>082-084>086-088>090-092>094-240800-
SOUTH-CENTRAL ILLINOIS

CITY           SKY/WX    TMP DP  RH WIND       PRES   REMARKS
CARBONDALE     CLEAR     34  28  79 S5        29.97F WCI  30
CAIRO*         CLOUDY    39  27  63 S5        30.00F
EFFINGHAM*     CLEAR     34  26  74 SE6       29.95F WCI  29
MARION         CLEAR     36  29  74 S7        29.98F WCI  31
MT. VERNON     CLOUDY    28  25  88 CALM      29.96F
CENTRALIA*     CLOUDY    36  30  79 S5        29.94F WCI  32
SALEM*         CLOUDY    38  28  65 S3        29.94F
METROPOLIS*    CLOUDY    31  27  85 CALM      30.01F
$$

ILZ067-068-072-073-078-083-087-091-240800-
SOUTHEAST ILLINOIS

CITY           SKY/WX    TMP DP  RH WIND       PRES   REMARKS
LAWRENCEVILLE  CLOUDY    34  25  69 S5        29.98F WCI  30
FLORA*         CLOUDY    32  26  80 S5        29.96F WCI  27
FAIRFIELD*     CLOUDY    34  26  70 CALM      29.96F
HARRISBURG*    CLOUDY    32  27  81 CALM      29.99S
ROBINSON*      CLOUDY    29  24  79 S3        29.98F
CARMI*         CLOUDY    31  26  84 S6        29.98F WCI  25
$$

ABBREVIATIONS USED IN REMARKS
   TC - TEMPERATURE IN CELSIUS
  WCI - WIND CHILL INDEX
   HX - HEAT INDEX
  VSB - VISIBILITY
$$





USA.gov is the U.S. government's official web portal to all federal, state and local government web resources and services.